StationID,Date,MaxTemp,MinTemp,Precipitation,Snowfall,SnowDepth
"CA001030605","1959-08-08",62.96,,0.00,0.00,
"CA001030605","1959-08-09",66.02,46.94,0.00,0.00,
"CA001030605","1959-08-10",62.96,50.00,0.00,0.00,
"CA001030605","1959-08-11",62.06,55.04,8.00,0.00,
"CA001030605","1959-08-12",64.94,55.04,0.00,0.00,
"CA001030605","1959-08-13",64.04,55.04,3.00,0.00,
"CA001030605","1959-08-14",60.08,50.00,61.00,0.00,
"CA001030605","1959-08-15",62.96,55.04,25.00,0.00,
"CA001030605","1959-08-16",59.00,53.96,23.00,0.00,
"CA001030605","1959-08-17",64.94,53.96,0.00,0.00,
"CA001030605","1959-08-18",62.06,48.92,0.00,0.00,
"CA001030605","1959-08-19",66.02,46.94,0.00,0.00,
"CA001030605","1959-08-20",66.92,46.94,0.00,0.00,
"CA001030605","1959-08-21",62.96,50.00,23.00,0.00,
"CA001030605","1959-08-22",62.06,55.04,0.00,0.00,
"CA001030605","1959-08-23",62.96,50.00,0.00,0.00,
"CA001030605","1959-08-24",69.08,44.06,0.00,0.00,
"CA001030605","1959-08-25",66.92,44.96,8.00,0.00,
"CA001030605","1959-08-26",57.92,46.94,89.00,0.00,
"CA001030605","1959-08-27",60.98,53.06,89.00,0.00,
"CA001030605","1959-08-28",64.94,51.98,0.00,0.00,
"CA001030605","1959-08-29",64.04,44.96,0.00,0.00,
"CA001030605","1959-08-30",60.98,44.96,216.00,0.00,
"CA001030605","1959-08-31",64.04,51.98,3.00,0.00,
"CA001030605","1959-09-01",64.04,44.96,0.00,0.00,
"CA001030605","1959-09-02",66.92,44.06,0.00,0.00,
"CA001030605","1959-09-03",59.00,53.96,191.00,0.00,
"CA001030605","1959-09-04",57.92,51.08,122.00,0.00,
"CA001030605","1959-09-05",57.02,51.98,175.00,0.00,
"CA001030605","1959-09-06",60.98,51.98,102.00,0.00,
"CA001030605","1959-09-07",55.94,51.08,127.00,0.00,
"CA001030605","1959-09-08",59.00,39.92,0.00,0.00,
"CA001030605","1959-09-09",64.94,41.00,0.00,0.00,
"CA001030605","1959-09-10",68.00,42.98,0.00,0.00,
"CA001030605","1959-09-11",64.94,46.94,8.00,0.00,
"CA001030605","1959-09-12",62.06,55.94,3.00,0.00,
"CA001030605","1959-09-13",64.04,50.00,28.00,0.00,
"CA001030605","1959-09-14",64.04,51.08,0.00,0.00,
"CA001030605","1959-09-15",60.08,48.02,3.00,0.00,
"CA001030605","1959-09-16",62.06,50.00,3.00,0.00,
"CA001030605","1959-09-17",68.00,44.96,3.00,0.00,
"CA001030605","1959-09-18",64.04,51.98,249.00,0.00,
"CA001030605","1959-09-19",60.98,53.96,135.00,0.00,
"CA001030605","1959-09-20",64.94,53.06,0.00,0.00,
"CA001030605","1959-09-21",60.08,53.06,0.00,0.00,
"CA001030605","1959-09-22",62.06,44.96,0.00,0.00,
"CA001030605","1959-09-23",60.08,42.08,211.00,0.00,
"CA001030605","1959-09-24",59.00,51.08,193.00,0.00,
"CA001030605","1959-09-25",59.00,53.06,132.00,0.00,
"CA001030605","1959-09-26",60.08,51.08,0.00,0.00,
"CA001030605","1959-09-27",62.96,41.00,0.00,0.00,
"CA001030605","1959-09-28",62.06,39.92,0.00,0.00,
"CA001030605","1959-09-29",57.02,50.00,0.00,0.00,
"CA001030605","1959-09-30",62.96,44.06,0.00,0.00,
"CA001030605","1959-10-01",60.08,42.08,0.00,0.00,
"CA001030605","1959-10-02",62.06,42.08,0.00,0.00,
"CA001030605","1959-10-03",53.96,44.96,0.00,0.00,
"CA001030605","1959-10-04",55.04,48.02,0.00,0.00,
"CA001030605","1959-10-05",60.08,41.00,0.00,0.00,
"CA001030605","1959-10-06",55.04,37.94,0.00,0.00,
"CA001030605","1959-10-07",55.04,39.02,18.00,0.00,
"CA001030605","1959-10-08",55.94,41.00,5.00,0.00,
"CA001030605","1959-10-09",51.98,35.06,0.00,0.00,
"CA001030605","1959-10-10",55.04,39.02,305.00,0.00,
"CA001030605","1959-10-11",55.94,44.96,36.00,0.00,
"CA001030605","1959-10-12",57.02,50.00,13.00,0.00,
"CA001030605","1959-10-13",55.94,48.92,389.00,0.00,
"CA001030605","1959-10-14",53.06,51.08,208.00,0.00,
"CA001030605","1959-10-15",57.02,46.94,0.00,0.00,
"CA001030605","1959-10-16",59.00,37.94,0.00,0.00,
"CA001030605","1959-10-17",60.08,35.96,0.00,0.00,
"CA001030605","1959-10-18",59.00,41.00,0.00,0.00,
"CA001030605","1959-10-19",55.94,46.94,114.00,0.00,
"CA001030605","1959-10-20",55.94,48.92,132.00,0.00,
"CA001030605","1959-10-21",55.94,50.00,130.00,0.00,
"CA001030605","1959-10-22",57.92,51.08,0.00,0.00,
"CA001030605","1959-10-23",57.02,46.04,434.00,0.00,
"CA001030605","1959-10-24",57.02,51.98,41.00,0.00,
"CA001030605","1959-10-25",57.92,44.06,0.00,0.00,
"CA001030605","1959-10-26",60.08,42.98,20.00,0.00,
"CA001030605","1959-10-27",55.04,42.08,18.00,0.00,
"CA001030605","1959-10-28",55.94,37.94,0.00,0.00,
"CA001030605","1959-10-29",53.96,33.98,0.00,0.00,
"CA001030605","1959-10-30",51.98,37.04,0.00,0.00,
"CA001030605","1959-10-31",53.96,46.94,18.00,0.00,
"CA001030605","1959-11-01",53.96,48.02,25.00,0.00,
"CA001030605","1959-11-02",55.04,48.02,617.00,0.00,
"CA001030605","1959-11-03",55.04,44.06,0.00,0.00,
"CA001030605","1959-11-04",51.08,30.92,0.00,0.00,
"CA001030605","1959-11-05",48.02,33.08,0.00,0.00,
"CA001030605","1959-11-06",51.98,35.06,0.00,0.00,
"CA001030605","1959-11-07",53.96,37.94,0.00,0.00,
"CA001030605","1959-11-08",53.96,33.98,0.00,0.00,
"CA001030605","1959-11-09",46.94,35.96,0.00,0.00,
"CA001030605","1959-11-10",51.98,33.98,18.00,0.00,
"CA001030605","1959-11-11",53.96,37.94,0.00,0.00,
"CA001030605","1959-11-12",51.98,37.04,0.00,0.00,
"CA001030605","1959-11-13",39.92,26.06,0.00,0.00,
"CA001030605","1959-11-14",42.98,28.94,114.00,0.00,
"CA001030605","1959-11-15",39.02,32.00,0.00,0.00,
"CA001030605","1959-11-16",41.00,26.96,102.00,0.00,
"CA001030605","1959-11-17",42.98,33.08,267.00,0.00,
"CA001030605","1959-11-18",44.96,37.94,175.00,0.00,
"CA001030605","1959-11-19",53.96,42.08,338.00,0.00,
"CA001030605","1959-11-20",51.98,48.92,89.00,0.00,
"CA001030605","1959-11-21",51.98,37.04,1031.00,0.00,
"CA001030605","1959-11-22",55.04,46.94,64.00,0.00,
"CA001030605","1959-11-23",55.04,46.04,71.00,0.00,
"CA001030605","1959-11-24",53.96,44.96,112.00,0.00,
"CA001030605","1959-11-25",50.00,32.00,0.00,0.00,
"CA001030605","1959-11-26",50.00,30.02,0.00,0.00,
"CA001030605","1959-11-27",51.08,30.02,43.00,0.00,
"CA001030605","1959-11-28",53.06,39.92,117.00,0.00,
"CA001030605","1959-11-29",51.08,44.06,8.00,0.00,
"CA001030605","1959-11-30",46.94,39.02,0.00,0.00,
"CA001030605","1959-12-01",51.98,42.98,157.00,0.00,
"CA001030605","1959-12-02",51.98,46.04,69.00,0.00,
"CA001030605","1959-12-03",51.98,33.98,0.00,0.00,
"CA001030605","1959-12-04",42.98,32.00,0.00,0.00,
"CA001030605","1959-12-05",48.02,32.00,157.00,0.00,
"CA001030605","1959-12-06",48.92,32.00,8.00,0.00,
"CA001030605","1959-12-07",46.94,30.92,0.00,0.00,
"CA001030605","1959-12-08",44.96,30.92,38.00,0.00,
"CA001030605","1959-12-09",50.00,33.98,399.00,0.00,
"CA001030605","1959-12-10",51.98,46.94,356.00,0.00,
"CA001030605","1959-12-11",51.98,42.98,130.00,0.00,
"CA001030605","1959-12-12",48.02,35.06,0.00,0.00,
"CA001030605","1959-12-13",48.02,30.02,1232.00,0.00,
"CA001030605","1959-12-14",48.92,37.94,150.00,0.00,
"CA001030605","1959-12-15",46.94,41.00,25.00,0.00,
"CA001030605","1959-12-16",46.04,30.02,15.00,0.00,
"CA001030605","1959-12-17",46.04,37.04,224.00,0.00,
"CA001030605","1959-12-18",53.06,39.92,5.00,0.00,
"CA001030605","1959-12-19",51.08,42.98,175.00,0.00,
"CA001030605","1959-12-20",44.96,33.08,0.00,0.00,
"CA001030605","1959-12-21",42.08,32.00,0.00,0.00,
"CA001030605","1959-12-22",41.00,32.00,51.00,0.00,
"CA001030605","1959-12-23",48.92,39.02,140.00,0.00,
"CA001030605","1959-12-24",46.04,33.08,64.00,0.00,
"CA001030605","1959-12-25",44.06,28.94,0.00,0.00,
"CA001030605","1959-12-26",46.94,32.00,208.00,0.00,
"CA001030605","1959-12-27",48.02,37.04,0.00,0.00,
"CA001030605","1959-12-28",42.98,28.94,0.00,0.00,
"CA001030605","1959-12-29",39.02,28.94,5.00,0.00,
"CA001030605","1959-12-30",44.06,30.92,0.00,0.00,
"CA001030605","1959-12-31",46.04,26.96,0.00,0.00,
"CA001030605","1960-01-01",39.92,24.98,3.00,0.00,
"CA001030605","1960-01-02",44.06,32.00,0.00,0.00,
"CA001030605","1960-01-03",35.96,26.96,0.00,0.00,
"CA001030605","1960-01-04",39.92,32.00,38.00,0.00,
"CA001030605","1960-01-05",44.96,37.04,249.00,0.00,
"CA001030605","1960-01-06",41.00,30.92,64.00,0.00,
"CA001030605","1960-01-07",44.06,33.98,3.00,0.00,
"CA001030605","1960-01-08",41.00,28.04,0.00,0.00,
"CA001030605","1960-01-09",39.92,26.96,180.00,0.00,
"CA001030605","1960-01-10",41.00,33.08,84.00,0.00,
"CA001030605","1960-01-11",42.08,30.02,0.00,0.00,
"CA001030605","1960-01-12",39.02,26.96,218.00,0.00,
"CA001030605","1960-01-13",39.92,35.06,508.00,0.00,
"CA001030605","1960-01-14",37.94,32.00,239.00,0.00,
"CA001030605","1960-01-15",39.02,30.02,30.00,0.00,
"CA001030605","1960-01-16",41.00,33.98,0.00,0.00,
"CA001030605","1960-01-17",48.02,33.98,0.00,0.00,
"CA001030605","1960-01-18",44.96,28.94,0.00,0.00,
"CA001030605","1960-01-19",41.00,28.94,0.00,0.00,
"CA001030605","1960-01-20",42.08,33.98,0.00,0.00,
"CA001030605","1960-01-21",44.96,37.04,0.00,0.00,
"CA001030605","1960-01-22",44.06,37.04,38.00,0.00,
"CA001030605","1960-01-23",46.94,39.92,475.00,0.00,
"CA001030605","1960-01-24",48.02,41.00,56.00,0.00,
"CA001030605","1960-01-25",44.96,39.02,38.00,0.00,
"CA001030605","1960-01-26",44.06,39.92,297.00,0.00,
"CA001030605","1960-01-27",46.04,39.02,64.00,0.00,
"CA001030605","1960-01-28",51.08,39.92,566.00,0.00,
"CA001030605","1960-01-29",50.00,44.06,404.00,0.00,
"CA001030605","1960-01-30",53.96,42.08,0.00,0.00,
"CA001030605","1960-01-31",57.92,41.00,368.00,0.00,
"CA001030605","1960-02-01",48.02,44.96,91.00,0.00,
"CA001030605","1960-02-02",48.02,42.08,64.00,0.00,
"CA001030605","1960-02-03",51.08,35.06,0.00,0.00,
"CA001030605","1960-02-04",53.06,35.96,295.00,0.00,
"CA001030605","1960-02-05",51.98,44.96,170.00,0.00,
"CA001030605","1960-02-06",51.08,39.92,348.00,0.00,
"CA001030605","1960-02-07",51.98,37.94,81.00,0.00,
"CA001030605","1960-02-08",48.02,35.96,30.00,0.00,
"CA001030605","1960-02-09",48.02,35.06,3.00,0.00,
"CA001030605","1960-02-10",48.92,33.98,0.00,0.00,
"CA001030605","1960-02-11",50.00,37.94,759.00,0.00,
"CA001030605","1960-02-12",48.92,39.92,46.00,0.00,
"CA001030605","1960-02-13",48.02,35.06,516.00,0.00,
"CA001030605","1960-02-14",48.92,42.08,160.00,0.00,
"CA001030605","1960-02-15",46.94,39.92,13.00,0.00,
"CA001030605","1960-02-16",46.94,32.00,0.00,0.00,
"CA001030605","1960-02-17",44.96,32.00,0.00,0.00,
"CA001030605","1960-02-18",48.92,30.02,0.00,0.00,
"CA001030605","1960-02-19",48.02,30.02,0.00,0.00,
"CA001030605","1960-02-20",46.94,39.02,160.00,0.00,
"CA001030605","1960-02-21",51.08,30.02,0.00,0.00,
"CA001030605","1960-02-22",50.00,30.02,0.00,0.00,
"CA001030605","1960-02-23",48.02,28.04,0.00,0.00,
"CA001030605","1960-02-24",53.06,35.06,0.00,0.00,
"CA001030605","1960-02-25",46.94,26.96,0.00,0.00,
"CA001030605","1960-02-26",44.06,28.94,0.00,0.00,
"CA001030605","1960-02-27",46.04,26.06,0.00,0.00,
"CA001030605","1960-02-28",44.96,24.08,0.00,0.00,
"CA001030605","1960-02-29",46.94,24.98,0.00,0.00,
"CA001030605","1960-03-01",44.96,26.06,0.00,0.00,
"CA001030605","1960-03-02",37.04,26.96,0.00,0.00,
"CA001030605","1960-03-03",35.96,28.94,0.00,0.00,
"CA001030605","1960-03-04",44.06,24.98,86.00,0.00,
"CA001030605","1960-03-05",46.04,33.08,84.00,0.00,
"CA001030605","1960-03-06",48.92,30.92,112.00,0.00,
"CA001030605","1960-03-07",46.94,35.06,56.00,0.00,
"CA001030605","1960-03-08",42.98,33.08,69.00,0.00,
"CA001030605","1960-03-09",44.06,30.02,102.00,0.00,
"CA001030605","1960-03-10",44.06,32.00,15.00,0.00,
"CA001030605","1960-03-11",48.92,30.02,0.00,0.00,
"CA001030605","1960-03-12",50.00,28.04,58.00,0.00,
"CA001030605","1960-03-13",46.94,28.94,51.00,0.00,
"CA001030605","1960-03-14",46.04,33.98,325.00,0.00,
"CA001030605","1960-03-15",48.02,39.92,53.00,0.00,
"CA001030605","1960-03-16",46.04,37.94,71.00,0.00,
"CA001030605","1960-03-17",51.98,42.98,0.00,0.00,
"CA001030605","1960-03-18",51.98,33.08,0.00,0.00,
"CA001030605","1960-03-19",64.94,30.02,0.00,0.00,
"CA001030605","1960-03-20",53.06,35.96,0.00,0.00,
"CA001030605","1960-03-21",53.06,42.98,0.00,0.00,
"CA001030605","1960-03-22",55.04,35.96,0.00,0.00,
"CA001030605","1960-03-23",51.98,35.96,0.00,0.00,
"CA001030605","1960-03-24",57.02,44.06,0.00,0.00,
"CA001030605","1960-03-25",55.04,41.00,401.00,0.00,
"CA001030605","1960-03-26",48.92,42.08,130.00,0.00,
"CA001030605","1960-03-27",48.02,39.92,213.00,0.00,
"CA001030605","1960-03-28",48.02,39.02,257.00,0.00,
"CA001030605","1960-03-29",46.94,41.00,236.00,0.00,
"CA001030605","1960-03-30",48.02,35.96,208.00,0.00,
"CA001030605","1960-03-31",50.00,35.96,41.00,0.00,
"CA001030605","1960-04-01",50.00,39.02,404.00,0.00,
"CA001030605","1960-04-02",51.08,44.96,175.00,0.00,
"CA001030605","1960-04-03",60.98,46.94,0.00,0.00,
"CA001030605","1960-04-04",55.04,42.98,15.00,0.00,
"CA001030605","1960-04-05",60.08,42.98,0.00,0.00,
"CA001030605","1960-04-06",66.02,39.92,0.00,0.00,
"CA001030605","1960-04-07",51.98,41.00,0.00,0.00,
"CA001030605","1960-04-08",55.04,44.96,109.00,0.00,
"CA001030605","1960-04-09",51.98,37.94,0.00,0.00,
"CA001030605","1960-04-10",60.98,33.98,165.00,0.00,
"CA001030605","1960-04-11",50.00,39.02,208.00,0.00,
"CA001030605","1960-04-12",48.92,39.02,69.00,0.00,
"CA001030605","1960-04-13",46.94,37.94,445.00,0.00,
"CA001030605","1960-04-14",48.92,39.02,147.00,0.00,
"CA001030605","1960-04-15",48.02,33.08,15.00,0.00,
"CA001030605","1960-04-16",46.94,39.92,229.00,0.00,
"CA001030605","1960-04-17",51.08,39.92,147.00,0.00,
"CA001030605","1960-04-18",44.96,39.02,267.00,0.00,
"CA001030605","1960-04-19",48.92,35.06,345.00,0.00,
"CA001030605","1960-04-20",48.02,42.08,124.00,0.00,
"CA001030605","1960-04-21",48.92,35.06,0.00,0.00,
"CA001030605","1960-04-22",55.94,33.98,0.00,0.00,
"CA001030605","1960-04-23",60.08,37.04,114.00,0.00,
"CA001030605","1960-04-24",50.00,42.98,18.00,0.00,
"CA001030605","1960-04-25",55.04,39.92,0.00,0.00,
"CA001030605","1960-04-26",55.94,41.00,0.00,0.00,
"CA001030605","1960-04-27",71.06,44.96,0.00,0.00,
"CA001030605","1960-04-28",57.02,39.02,0.00,0.00,
"CA001030605","1960-04-29",51.08,46.94,0.00,0.00,
"CA001030605","1960-04-30",53.96,46.04,18.00,0.00,
"CA001030605","1960-05-01",55.04,44.06,41.00,0.00,
"CA001030605","1960-05-02",51.08,46.94,0.00,0.00,
"CA001030605","1960-05-03",50.00,42.98,0.00,0.00,
"CA001030605","1960-05-04",53.96,39.02,5.00,0.00,
"CA001030605","1960-05-05",57.92,44.06,218.00,0.00,
"CA001030605","1960-05-06",55.04,46.04,155.00,0.00,
"CA001030605","1960-05-07",53.96,42.08,46.00,0.00,
"CA001030605","1960-05-08",55.04,41.00,0.00,0.00,
"CA001030605","1960-05-09",68.00,46.94,160.00,0.00,
"CA001030605","1960-05-10",55.94,53.06,89.00,0.00,
"CA001030605","1960-05-11",55.04,46.94,142.00,0.00,
"CA001030605","1960-05-12",55.04,48.02,23.00,0.00,
"CA001030605","1960-05-13",53.96,44.06,5.00,0.00,
"CA001030605","1960-05-14",53.96,42.98,0.00,0.00,
"CA001030605","1960-05-15",53.06,39.02,94.00,0.00,
"CA001030605","1960-05-16",51.98,44.96,99.00,0.00,
"CA001030605","1960-05-17",53.96,41.00,5.00,0.00,
"CA001030605","1960-05-18",55.04,41.00,23.00,0.00,
"CA001030605","1960-05-19",51.08,41.00,135.00,0.00,
"CA001030605","1960-05-20",51.08,39.92,0.00,0.00,
"CA001030605","1960-05-21",53.06,37.94,76.00,0.00,
"CA001030605","1960-05-22",55.94,39.92,0.00,0.00,
"CA001030605","1960-05-23",59.00,37.04,18.00,0.00,
"CA001030605","1960-05-24",55.94,39.02,0.00,0.00,
"CA001030605","1960-05-25",55.04,42.08,386.00,0.00,
"CA001030605","1960-05-26",55.04,44.06,191.00,0.00,
"CA001030605","1960-05-27",55.04,42.98,18.00,0.00,
"CA001030605","1960-05-28",59.00,46.04,20.00,0.00,
"CA001030605","1960-05-29",51.98,44.96,361.00,0.00,
"CA001030605","1960-05-30",53.96,50.00,81.00,0.00,
"CA001030605","1960-05-31",57.02,44.96,213.00,0.00,
"CA001030605","1960-06-01",55.04,48.92,99.00,0.00,
"CA001030605","1960-06-02",57.02,51.08,66.00,0.00,
"CA001030605","1960-06-03",60.98,51.08,0.00,0.00,
"CA001030605","1960-06-04",62.06,42.08,0.00,0.00,
"CA001030605","1960-06-05",59.00,42.08,0.00,0.00,
"CA001030605","1960-06-06",55.94,50.00,0.00,0.00,
"CA001030605","1960-06-07",60.98,41.00,0.00,0.00,
"CA001030605","1960-06-08",59.00,42.08,0.00,0.00,
"CA001030605","1960-06-09",66.02,44.96,0.00,0.00,
"CA001030605","1960-06-10",60.08,46.04,0.00,0.00,
"CA001030605","1960-06-11",59.00,50.00,0.00,0.00,
"CA001030605","1960-06-12",64.04,42.08,0.00,0.00,
"CA001030605","1960-06-13",59.00,51.08,23.00,0.00,
"CA001030605","1960-06-14",55.04,51.08,71.00,0.00,
"CA001030605","1960-06-15",57.02,48.92,127.00,0.00,
"CA001030605","1960-06-16",57.02,48.92,211.00,0.00,
"CA001030605","1960-06-17",57.92,46.94,0.00,0.00,
"CA001030605","1960-06-18",57.02,44.06,41.00,0.00,
"CA001030605","1960-06-19",57.02,44.96,0.00,0.00,
"CA001030605","1960-06-20",57.02,42.98,0.00,0.00,
"CA001030605","1960-06-21",59.00,46.94,0.00,0.00,
"CA001030605","1960-06-22",60.08,44.06,0.00,0.00,
"CA001030605","1960-06-23",59.00,48.92,0.00,0.00,
"CA001030605","1960-06-24",57.02,50.00,0.00,0.00,
"CA001030605","1960-06-25",60.98,50.00,0.00,0.00,
"CA001030605","1960-06-26",59.00,51.08,0.00,0.00,
"CA001030605","1960-06-27",57.92,48.92,0.00,0.00,
"CA001030605","1960-06-28",59.00,48.92,0.00,0.00,
"CA001030605","1960-06-29",57.92,51.98,0.00,0.00,
"CA001030605","1960-06-30",57.92,51.08,0.00,0.00,
"CA001030605","1960-07-01",59.00,51.08,0.00,0.00,
"CA001030605","1960-07-02",60.98,48.92,0.00,0.00,
"CA001030605","1960-07-03",60.98,48.02,0.00,0.00,
"CA001030605","1960-07-04",71.96,44.96,0.00,0.00,
"CA001030605","1960-07-05",82.04,48.02,0.00,0.00,
"CA001030605","1960-07-06",71.06,51.98,0.00,0.00,
"CA001030605","1960-07-07",62.06,50.00,0.00,0.00,
"CA001030605","1960-07-08",62.06,44.06,0.00,0.00,
"CA001030605","1960-07-09",60.98,42.98,0.00,0.00,
"CA001030605","1960-07-10",57.92,46.94,0.00,0.00,
"CA001030605","1960-07-11",64.04,44.96,0.00,0.00,
"CA001030605","1960-07-12",68.00,50.00,13.00,0.00,
"CA001030605","1960-07-13",64.04,53.96,0.00,0.00,
"CA001030605","1960-07-14",64.94,46.04,0.00,0.00,
"CA001030605","1960-07-15",68.00,46.94,0.00,0.00,
"CA001030605","1960-07-16",75.02,51.08,0.00,0.00,
"CA001030605","1960-07-17",68.00,51.08,0.00,0.00,
"CA001030605","1960-07-18",62.06,50.00,0.00,0.00,
"CA001030605","1960-07-19",62.96,44.96,0.00,0.00,
"CA001030605","1960-07-20",62.06,42.08,0.00,0.00,
"CA001030605","1960-07-21",62.06,46.94,0.00,0.00,
"CA001030605","1960-07-22",60.08,50.00,0.00,0.00,
"CA001030605","1960-07-23",64.04,42.98,0.00,0.00,
"CA001030605","1960-07-24",62.06,46.94,0.00,0.00,
"CA001030605","1960-07-25",71.06,44.96,0.00,0.00,
"CA001030605","1960-07-26",78.08,46.94,0.00,0.00,
"CA001030605","1960-07-27",69.08,55.94,0.00,0.00,
"CA001030605","1960-07-28",71.96,48.92,0.00,0.00,
"CA001030605","1960-07-29",77.00,48.92,0.00,0.00,
"CA001030605","1960-07-30",62.96,55.04,0.00,0.00,
"CA001030605","1960-07-31",60.98,55.04,0.00,0.00,
"CA001030605","1960-08-01",64.04,53.96,0.00,0.00,
"CA001030605","1960-08-02",64.94,55.04,0.00,0.00,
"CA001030605","1960-08-03",60.98,55.04,0.00,0.00,
"CA001030605","1960-08-04",66.02,55.04,0.00,0.00,
"CA001030605","1960-08-05",66.92,44.96,0.00,0.00,
"CA001030605","1960-08-06",75.02,48.92,0.00,0.00,
"CA001030605","1960-08-07",78.08,50.00,0.00,0.00,
"CA001030605","1960-08-08",86.00,51.98,0.00,0.00,
"CA001030605","1960-08-09",73.04,53.96,0.00,0.00,
"CA001030605","1960-08-10",66.92,55.04,0.00,0.00,
"CA001030605","1960-08-11",64.94,57.02,0.00,0.00,
"CA001030605","1960-08-12",62.96,55.94,0.00,0.00,
"CA001030605","1960-08-13",62.96,51.08,13.00,0.00,
"CA001030605","1960-08-14",57.02,48.02,86.00,0.00,
"CA001030605","1960-08-15",57.92,44.06,102.00,0.00,
"CA001030605","1960-08-16",59.00,53.06,64.00,0.00,
"CA001030605","1960-08-17",62.06,55.04,25.00,0.00,
"CA001030605","1960-08-18",62.96,55.04,0.00,0.00,
"CA001030605","1960-08-19",64.94,53.96,0.00,0.00,
"CA001030605","1960-08-20",60.08,44.96,168.00,0.00,
"CA001030605","1960-08-21",60.08,48.92,13.00,0.00,
"CA001030605","1960-08-22",60.98,44.06,15.00,0.00,
"CA001030605","1960-08-23",59.00,51.08,38.00,0.00,
"CA001030605","1960-08-24",62.96,46.94,64.00,0.00,
"CA001030605","1960-08-25",57.92,51.98,0.00,0.00,
"CA001030605","1960-08-26",60.98,46.94,0.00,0.00,
"CA001030605","1960-08-27",60.08,46.04,74.00,0.00,
"CA001030605","1960-08-28",57.02,53.06,114.00,0.00,
"CA001030605","1960-08-29",57.02,48.02,157.00,0.00,
"CA001030605","1960-08-30",57.02,51.98,102.00,0.00,
"CA001030605","1960-08-31",60.08,46.04,0.00,0.00,
"CA001030605","1960-09-01",60.08,39.92,0.00,0.00,
"CA001030605","1960-09-02",64.04,39.92,0.00,0.00,
"CA001030605","1960-09-03",66.02,42.08,0.00,0.00,
"CA001030605","1960-09-04",57.92,48.92,274.00,0.00,
"CA001030605","1960-09-05",60.08,44.96,0.00,0.00,
"CA001030605","1960-09-06",60.08,39.92,0.00,0.00,
"CA001030605","1960-09-07",64.04,41.00,0.00,0.00,
"CA001030605","1960-09-08",71.06,42.08,0.00,0.00,
"CA001030605","1960-09-09",73.04,42.98,0.00,0.00,
"CA001030605","1960-09-10",75.02,46.04,0.00,0.00,
"CA001030605","1960-09-11",78.98,46.94,0.00,0.00,
"CA001030605","1960-09-12",64.94,53.96,0.00,0.00,
"CA001030605","1960-09-13",57.92,48.92,0.00,0.00,
"CA001030605","1960-09-14",57.02,53.06,0.00,0.00,
"CA001030605","1960-09-15",57.92,51.98,0.00,0.00,
"CA001030605","1960-09-16",55.04,51.08,0.00,0.00,
"CA001030605","1960-09-17",57.02,51.08,25.00,0.00,
"CA001030605","1960-09-18",57.02,53.96,490.00,0.00,
"CA001030605","1960-09-19",60.08,51.98,0.00,0.00,
"CA001030605","1960-09-20",57.92,39.92,0.00,0.00,
"CA001030605","1960-09-21",60.98,39.02,0.00,0.00,
"CA001030605","1960-09-22",53.96,46.04,99.00,0.00,
"CA001030605","1960-09-23",57.92,46.94,203.00,0.00,
"CA001030605","1960-09-24",59.00,50.00,0.00,0.00,
"CA001030605","1960-09-25",62.96,44.06,0.00,0.00,
"CA001030605","1960-09-26",64.04,39.92,0.00,0.00,
"CA001030605","1960-09-27",68.00,39.92,0.00,0.00,
"CA001030605","1960-09-28",68.00,39.92,0.00,0.00,
"CA001030605","1960-09-29",71.06,42.08,0.00,0.00,
"CA001030605","1960-09-30",64.94,42.98,0.00,0.00,
"CA001030605","1960-10-01",69.98,39.92,0.00,0.00,
"CA001030605","1960-10-02",53.06,41.00,25.00,0.00,
"CA001030605","1960-10-03",55.04,48.92,13.00,0.00,
"CA001030605","1960-10-04",62.06,48.02,0.00,0.00,
"CA001030605","1960-10-05",62.96,42.08,137.00,0.00,
"CA001030605","1960-10-06",57.02,51.98,419.00,0.00,
"CA001030605","1960-10-07",55.04,46.94,23.00,0.00,
"CA001030605","1960-10-08",55.04,37.04,0.00,0.00,
"CA001030605","1960-10-09",57.02,37.04,0.00,0.00,
"CA001030605","1960-10-10",57.92,35.96,8.00,0.00,
"CA001030605","1960-10-11",53.06,42.98,28.00,0.00,
"CA001030605","1960-10-12",57.02,35.06,15.00,0.00,
"CA001030605","1960-10-13",53.06,39.92,66.00,0.00,
"CA001030605","1960-10-14",53.96,42.98,183.00,0.00,
"CA001030605","1960-10-15",55.94,51.08,48.00,0.00,
"CA001030605","1960-10-16",60.08,44.96,0.00,0.00,
"CA001030605","1960-10-17",66.92,42.98,0.00,0.00,
"CA001030605","1960-10-18",62.06,42.98,0.00,0.00,
"CA001030605","1960-10-19",55.94,50.00,13.00,0.00,
"CA001030605","1960-10-20",55.94,51.08,526.00,0.00,
"CA001030605","1960-10-21",57.02,51.98,13.00,0.00,
"CA001030605","1960-10-22",59.00,51.08,587.00,0.00,
"CA001030605","1960-10-23",55.94,53.06,292.00,0.00,
"CA001030605","1960-10-24",55.04,44.96,84.00,0.00,
"CA001030605","1960-10-25",53.96,50.00,338.00,0.00,
"CA001030605","1960-10-26",50.00,44.96,226.00,0.00,
"CA001030605","1960-10-27",55.04,42.98,254.00,0.00,
"CA001030605","1960-10-28",55.04,42.98,0.00,0.00,
"CA001030605","1960-10-29",53.96,37.04,107.00,0.00,
"CA001030605","1960-10-30",53.96,42.98,196.00,0.00,
"CA001030605","1960-10-31",55.04,46.04,107.00,0.00,
"CA001030605","1960-11-01",53.96,42.08,170.00,0.00,
"CA001030605","1960-11-02",53.96,39.92,0.00,0.00,
"CA001030605","1960-11-03",53.06,32.00,0.00,0.00,
"CA001030605","1960-11-04",55.04,32.00,0.00,0.00,
"CA001030605","1960-11-05",60.08,33.98,0.00,0.00,
"CA001030605","1960-11-06",55.04,33.08,0.00,0.00,
"CA001030605","1960-11-07",48.92,33.08,0.00,0.00,
"CA001030605","1960-11-08",51.98,39.92,0.00,0.00,
"CA001030605","1960-11-09",50.00,35.96,175.00,0.00,
"CA001030605","1960-11-10",51.08,42.98,140.00,0.00,
"CA001030605","1960-11-11",55.04,39.92,10.00,0.00,
"CA001030605","1960-11-12",48.02,37.94,3.00,0.00,